[[{"header":{"parameterUnit":"m.s-1","parameterCategory":1,"la1":30.2991,"la2":30.254,"lo1":-89.0895,"lo2":-89.0444,"dy":0.0017,"dx":0.0017,"nx":28,"ny":28,"refTime":"2025-11-29T09:00:00:Z","depth":0,"parameterNumber":2,"parameterNumberName":"U-component_of_WINDS"},"data":[0,0,0,0,0,0,0,0,0,0,0,0,0,0,0,0,0,0,0,0,0,0,0,0,0,0,0,0,0,0,0,0,0,0,0,0,0,0,0,0,0,0,0,0,0,0,0,0,0,0,0,0,0,0,0,0,0,0,-3.0537,-3.0537,0,-3.0589,-3.059,-3.059,-3.0517,-3.0514,-3.0512,-3.0509,-3.0563,-3.0567,-3.0571,0,0,0,0,0,0,0,0,0,0,0,0,0,-3.0373,-3.0376,-3.0537,-3.0537,-3.0538,-3.0589,-3.059,-3.059,-3.0518,-3.0514,-3.0511,-3.0508,-3.0562,-3.0567,-3.0571,0,0,0,0,0,0,0,0,0,0,0,0,0,-3.0436,-3.0377,-3.0537,-3.0508,-3.0506,-3.0589,-3.059,-3.0591,-3.0518,-3.0514,-3.051,-3.0507,-3.056,-3.0566,-3.0572,-3.0686,0,0,-3.059,-3.0592,0,0,0,0,0,0,0,0,-3.0433,-3.0443,-3.0511,-3.051,-3.0508,-3.0543,-3.0552,-3.0623,-3.0519,-3.0514,-3.0509,-3.0505,-3.056,-3.0565,-3.0584,-3.0688,-3.0691,-3.059,-3.0594,-3.0596,-3.0598,0,0,0,0,0,0,0,-3.0429,-3.044,-3.0557,-3.0512,-3.051,-3.0492,-3.0497,-3.0565,-3.0558,-3.0514,-3.0508,-3.0516,-3.0558,-3.0578,-3.0584,-3.0691,-3.059,-3.0595,-3.0599,-3.0601,-3.0892,-3.0896,0,0,0,0,0,0,-3.0428,-3.0437,-3.0556,-3.0559,-3.046,-3.0498,-3.0503,-3.0535,-3.0557,-3.0556,-3.0519,-3.0512,-3.057,-3.0578,-3.0586,-3.0721,-3.0596,-3.0601,-3.0605,-3.0887,-3.0893,-3.0897,0,0,0,0,0,0,-3.0424,-3.0439,-3.0554,-3.0496,-3.051,-3.0505,-3.0542,-3.0538,-3.0559,-3.0561,-3.0559,-3.0541,-3.0567,-3.0578,-3.0661,-3.0722,-3.0604,-3.0609,-3.0882,-3.0889,-3.0895,-3.0992,0,0,0,0,0,0,-3.042,-3.0438,-3.0482,-3.0498,-3.0513,-3.0629,-3.0545,-3.0542,-3.0569,-3.056,-3.0581,-3.0581,-3.0565,-3.0653,-3.0667,-3.0728,-3.0614,-3.0877,-3.0885,-3.0893,-3.0984,-3.1001,-3.1016,0,0,0,0,0,-3.0414,-3.0507,-3.0485,-3.0499,-3.0567,-3.0633,-3.0641,-3.0621,-3.0574,-3.0618,-3.0619,-3.058,-3.0712,-3.0662,-3.0677,-3.0741,-3.0873,-3.0883,-3.0892,-3.0976,-3.0998,-3.1016,0,0,0,0,0,0,-3.0499,-3.0509,-3.0484,-3.0585,-3.0608,-3.062,-3.0675,-3.0644,-3.0682,-3.0672,-3.0646,-3.0651,-3.0741,-3.0748,-3.0692,-3.0852,-3.0785,-3.0798,-3.0844,-3.0864,-3.088,-3.0877,-3.0619,0,0,0,0,0,-3.0529,-3.0581,-3.0587,-3.0676,-3.0689,-3.068,-3.0707,-3.069,-3.0713,-3.0723,-3.073,-3.0754,-3.0801,-3.0832,-3.0876,-3.0983,-3.0987,-3.1034,-3.105,-3.1064,-3.1076,-3.1134,-3.1155,-3.0928,-3.0928,-3.0928,0,0,-3.0593,-3.0604,-3.0639,-3.0693,-3.0709,-3.0764,-3.0689,-3.075,-3.079,-3.0732,-3.0812,-3.0818,-3.0843,-3.0939,-3.0982,-3.0948,-3.1139,-3.1076,-3.1087,-3.1092,-3.1146,-3.1167,-3.1186,-3.0935,-3.0934,-3.0933,0,0,-3.0736,-3.075,-3.0826,-3.0843,-3.0868,-3.0862,-3.088,-3.0896,-3.0898,-3.0977,-3.0935,-3.0981,-3.1063,-3.1082,-3.1103,-3.1252,-3.1218,-3.1267,-3.1353,-3.1409,-3.1427,-3.1443,-3.1497,-3.1516,-3.1279,-3.1279,-3.1279,0,-3.0812,-3.0893,-3.0868,-3.0932,-3.0957,-3.0906,-3.0982,-3.1,-3.1039,-3.1057,-3.1019,-3.1119,-3.1132,-3.1233,-3.1269,-3.1287,-3.1307,-3.1266,-3.1426,-3.1442,-3.1456,-3.1507,-3.1528,-3.1285,-3.1284,-3.1283,-3.1283,0,-3.0985,-3.1042,-3.1099,-3.1138,-3.1168,-3.1238,-3.1224,-3.1258,-3.1237,-3.1234,-3.1315,-3.1329,-3.1374,-3.1396,-3.1376,-3.1493,-3.1472,-3.143,-3.1363,-3.1484,-3.1532,-3.1551,-3.1293,-3.1291,-3.1289,-3.1288,0,0,-3.1186,-3.1208,-3.123,-3.1247,-3.127,-3.1313,-3.138,-3.1424,-3.1454,-3.1481,-3.1537,-3.1606,-3.1567,-3.1591,-3.1572,-3.1622,-3.174,-3.1574,-3.1574,-3.1605,-3.187,-3.1902,-3.1926,-3.1716,-3.172,-3.1723,-3.1868,0,-3.133,-3.1446,-3.1425,-3.1538,-3.159,-3.1542,-3.16,-3.162,-3.1619,-3.1662,-3.166,-3.171,-3.1655,-3.1669,-3.1715,-3.1716,-3.1793,-3.1705,-3.1768,-3.1771,-3.1766,-3.195,-3.1985,-3.2122,-3.1887,-3.189,-3.1892,0,-3.1515,-3.1549,-3.1667,-3.1682,-3.1703,-3.1756,-3.1794,-3.1836,-3.1857,-3.1853,-3.1878,-3.185,-3.1916,-3.1847,-3.1937,-3.1878,-3.1902,-3.1906,-3.1911,-3.1917,-3.184,-3.1963,-3.2165,-3.2186,-3.1921,-3.1919,-3.1917,0,-3.1651,-3.1726,-3.1807,-3.1822,-3.1841,-3.1879,-3.1888,-3.1906,-3.1934,-3.1966,-3.1984,-3.2024,-3.2047,-3.2078,-3.2061,-3.2012,-3.2155,-3.2084,-3.2154,-3.2154,-3.2188,-3.2186,-3.2398,-3.2201,-3.2201,-3.22,-3.22,0,-3.1815,-3.189,-3.1868,-3.1918,-3.2,-3.1974,-3.2055,-3.2059,-3.2075,-3.2124,-3.2084,-3.2131,-3.2105,-3.215,-3.2137,-3.2214,-3.2224,-3.2223,-3.2219,-3.2228,-3.2228,-3.2245,-3.2235,-3.2206,-3.2205,-3.2204,-3.2203,0,-3.1982,-3.197,-3.2055,-3.2065,-3.2069,-3.213,-3.2138,-3.2184,-3.2179,-3.2242,-3.2255,-3.2247,-3.2297,-3.2283,-3.2338,-3.2329,-3.2427,-3.241,-3.242,-3.2417,-3.2488,-3.2482,-3.2719,-3.2749,-3.2531,-3.2533,-3.2535,0,-3.2089,-3.2145,-3.2161,-3.2191,-3.2204,-3.2253,-3.228,-3.2256,-3.2287,-3.2315,-3.2358,-3.2405,-3.2441,-3.2524,-3.2523,-3.2565,-3.2549,-3.2629,-3.2556,-3.2562,-3.2552,-3.255,-3.2555,-3.2645,-3.2647,-3.2649,-3.2651,0,-3.228,-3.2271,-3.2313,-3.2352,-3.2386,-3.2416,-3.2442,-3.2469,-3.2447,-3.2483,-3.2534,-3.2562,-3.2618,-3.2665,-3.2702,-3.2711,-3.2678,-3.2674,-3.2692,-3.2703,-3.2707,-3.2707,-3.2462,-3.2669,-3.2667,-3.2666,-3.2665,-3.2664,-3.2421,-3.2469,-3.2487,-3.2535,-3.2552,-3.2577,-3.2621,-3.262,-3.2662,-3.2706,-3.2689,-3.2748,-3.2767,-3.2814,-3.2827,-3.2873,-3.2842,-3.2869,-3.2876,-3.2884,-3.2893,-3.2698,-3.2879,-3.2879,-3.2878,-3.2878,-3.2877,0,-3.2611,-3.262,-3.2664,-3.2702,-3.2739,-3.2703,-3.2729,-3.2763,-3.2815,-3.2836,-3.2872,-3.2931,-3.2976,-3.2977,-3.3019,-3.3055,-3.3041,-3.3067,-3.3066,-3.3068,-3.2917,-3.2898,-3.3078,-3.3078,-3.3078,-3.3078,-3.3078,-3.3078,-3.2715,-3.2794,-3.2787,-3.2873,-3.2881,-3.2939,-3.2957,-3.298,-3.2996,-3.3063,-3.31,-3.3101,-3.3114,-3.3156,-3.3196,-3.3195,-3.3213,-3.3245,-3.3239,-3.3099,-3.3079,-3.306,-3.3041,-3.3249,-3.3249,-3.3386,-3.3387,-3.3388]},{"header":{"parameterUnit":"m.s-1","parameterCategory":1,"la1":30.2991,"la2":30.254,"lo1":-89.0895,"lo2":-89.0444,"dy":0.0017,"dx":0.0017,"nx":28,"ny":28,"refTime":"2025-11-29T09:00:00:Z","depth":0,"parameterNumber":3,"parameterNumberName":"V-component_of_WINDS"},"data":[0,0,0,0,0,0,0,0,0,0,0,0,0,0,0,0,0,0,0,0,0,0,0,0,0,0,0,0,0,0,0,0,0,0,0,0,0,0,0,0,0,0,0,0,0,0,0,0,0,0,0,0,0,0,0,0,0,0,-7.2442,-7.2442,0,-7.2493,-7.2493,-7.2494,-7.2411,-7.2409,-7.2406,-7.2403,-7.2451,-7.2454,-7.2458,0,0,0,0,0,0,0,0,0,0,0,0,0,-7.2267,-7.2271,-7.2442,-7.2442,-7.2443,-7.2493,-7.2494,-7.2494,-7.2412,-7.2409,-7.2405,-7.2402,-7.2449,-7.2454,-7.2458,0,0,0,0,0,0,0,0,0,0,0,0,0,-7.2333,-7.2272,-7.2442,-7.2408,-7.2406,-7.2493,-7.2494,-7.2494,-7.2413,-7.2408,-7.2404,-7.24,-7.2448,-7.2453,-7.2459,-7.258,0,0,-7.2477,-7.2479,0,0,0,0,0,0,0,0,-7.233,-7.234,-7.2412,-7.2411,-7.2408,-7.2442,-7.2449,-7.2523,-7.2414,-7.241,-7.2403,-7.2398,-7.2451,-7.2456,-7.2475,-7.2582,-7.2584,-7.2477,-7.2481,-7.2483,-7.2485,0,0,0,0,0,0,0,-7.2325,-7.2337,-7.2462,-7.2414,-7.2411,-7.2389,-7.2393,-7.2463,-7.2453,-7.241,-7.2404,-7.2412,-7.2449,-7.2469,-7.2475,-7.2585,-7.2477,-7.2482,-7.2486,-7.2488,-7.2792,-7.2796,0,0,0,0,0,0,-7.2325,-7.2334,-7.246,-7.2463,-7.2358,-7.2395,-7.2401,-7.2435,-7.2452,-7.2451,-7.2415,-7.2407,-7.2461,-7.2468,-7.2476,-7.2618,-7.2483,-7.2489,-7.2492,-7.2787,-7.2793,-7.2798,0,0,0,0,0,0,-7.2322,-7.2338,-7.2458,-7.2397,-7.2411,-7.2403,-7.2442,-7.2438,-7.2459,-7.2456,-7.2453,-7.2438,-7.2458,-7.2468,-7.2555,-7.2618,-7.2492,-7.2497,-7.2782,-7.2789,-7.2796,-7.2902,0,0,0,0,0,0,-7.2317,-7.2337,-7.2384,-7.2399,-7.2414,-7.2537,-7.2446,-7.2442,-7.247,-7.246,-7.2477,-7.2476,-7.2456,-7.2547,-7.2561,-7.2624,-7.2501,-7.2776,-7.2785,-7.2793,-7.2893,-7.2912,-7.2928,0,0,0,0,0,-7.2311,-7.2411,-7.2387,-7.2402,-7.2473,-7.2541,-7.255,-7.2526,-7.2475,-7.2521,-7.252,-7.2475,-7.261,-7.2556,-7.2571,-7.2637,-7.2772,-7.2783,-7.2793,-7.2885,-7.2908,-7.2928,0,0,0,0,0,0,-7.2402,-7.2412,-7.2385,-7.2493,-7.2517,-7.2527,-7.2585,-7.2551,-7.2589,-7.2578,-7.2545,-7.255,-7.2643,-7.2649,-7.2589,-7.2754,-7.2682,-7.2696,-7.2747,-7.2769,-7.2786,-7.2782,-7.2506,0,0,0,0,0,-7.2435,-7.2491,-7.2496,-7.259,-7.2604,-7.2593,-7.2621,-7.2601,-7.2624,-7.2633,-7.2638,-7.266,-7.2707,-7.2738,-7.2782,-7.2894,-7.2895,-7.2947,-7.2964,-7.2979,-7.2991,-7.3049,-7.3072,-7.2832,-7.2832,-7.2831,0,0,-7.2502,-7.2515,-7.2552,-7.2609,-7.2625,-7.2682,-7.2602,-7.2666,-7.2707,-7.2642,-7.2724,-7.2729,-7.2751,-7.2851,-7.2895,-7.2859,-7.3058,-7.2992,-7.3004,-7.3007,-7.3062,-7.3085,-7.3105,-7.2839,-7.2837,-7.2836,0,0,-7.2654,-7.267,-7.275,-7.2769,-7.2795,-7.2787,-7.2806,-7.2822,-7.2822,-7.2905,-7.2857,-7.2905,-7.2987,-7.3005,-7.3025,-7.3185,-7.3145,-7.3199,-7.3291,-7.3348,-7.3367,-7.3384,-7.3439,-7.346,-7.3211,-7.3212,-7.3212,0,-7.2734,-7.282,-7.2795,-7.2863,-7.2889,-7.2835,-7.2914,-7.2933,-7.2971,-7.2989,-7.2948,-7.305,-7.3062,-7.3164,-7.3203,-7.3222,-7.3241,-7.3197,-7.3367,-7.3383,-7.3398,-7.3451,-7.3472,-7.3218,-7.3217,-7.3217,-7.3216,0,-7.2917,-7.2977,-7.3038,-7.3079,-7.3111,-7.3185,-7.3169,-7.3205,-7.3182,-7.3178,-7.3261,-7.3274,-7.3318,-7.3341,-7.3319,-7.3441,-7.3417,-7.3372,-7.3298,-7.3428,-7.3477,-7.3497,-7.3227,-7.3225,-7.3223,-7.3221,0,0,-7.3126,-7.3153,-7.3175,-7.3193,-7.3218,-7.3263,-7.3333,-7.3378,-7.3409,-7.3437,-7.3494,-7.3565,-7.3524,-7.3547,-7.3526,-7.3577,-7.3701,-7.3525,-7.3525,-7.3556,-7.3834,-7.3867,-7.3891,-7.3675,-7.3679,-7.3682,-7.3832,0,-7.3277,-7.34,-7.338,-7.3498,-7.3553,-7.3502,-7.3563,-7.3584,-7.3582,-7.3627,-7.3623,-7.3674,-7.3616,-7.363,-7.3678,-7.3676,-7.3756,-7.3664,-7.3726,-7.3728,-7.3721,-7.3916,-7.3951,-7.4092,-7.3851,-7.3854,-7.3856,0,-7.3469,-7.3506,-7.3631,-7.3647,-7.3669,-7.3725,-7.3764,-7.3808,-7.383,-7.3825,-7.3851,-7.3821,-7.3889,-7.3815,-7.3908,-7.3846,-7.387,-7.3873,-7.3878,-7.3881,-7.3799,-7.3924,-7.4137,-7.4157,-7.3886,-7.3884,-7.3882,0,-7.3608,-7.3689,-7.3774,-7.379,-7.3812,-7.3852,-7.3862,-7.3881,-7.3909,-7.3943,-7.3961,-7.4002,-7.4024,-7.4055,-7.4036,-7.3985,-7.4132,-7.4057,-7.4127,-7.4128,-7.4159,-7.4157,-7.4378,-7.4177,-7.4177,-7.4177,-7.4176,0,-7.3777,-7.3855,-7.3837,-7.3889,-7.3974,-7.3949,-7.4033,-7.4038,-7.4055,-7.4105,-7.4064,-7.4112,-7.4084,-7.4129,-7.4115,-7.4193,-7.4203,-7.42,-7.4194,-7.4203,-7.4203,-7.4217,-7.4206,-7.4182,-7.4181,-7.418,-7.4179,0,-7.3946,-7.3937,-7.4026,-7.404,-7.4045,-7.4107,-7.4118,-7.4165,-7.4161,-7.4225,-7.4239,-7.4231,-7.4282,-7.4266,-7.4321,-7.4311,-7.441,-7.4393,-7.4403,-7.4398,-7.4469,-7.4462,-7.4705,-7.4735,-7.4517,-7.4519,-7.4521,0,-7.4055,-7.4114,-7.4134,-7.4166,-7.418,-7.4232,-7.4261,-7.4239,-7.427,-7.43,-7.4344,-7.4392,-7.4429,-7.4513,-7.4511,-7.4552,-7.4535,-7.4617,-7.4541,-7.4547,-7.4534,-7.4531,-7.4536,-7.4632,-7.4634,-7.4636,-7.4638,0,-7.4247,-7.424,-7.4285,-7.4328,-7.4364,-7.4397,-7.4425,-7.4453,-7.4432,-7.447,-7.4522,-7.4551,-7.4608,-7.4656,-7.4694,-7.4702,-7.4666,-7.4662,-7.4681,-7.4689,-7.4692,-7.469,-7.4443,-7.4656,-7.4655,-7.4653,-7.4652,-7.4652,-7.4388,-7.4438,-7.4461,-7.4511,-7.4531,-7.4558,-7.4604,-7.4605,-7.4649,-7.4695,-7.4679,-7.4739,-7.4758,-7.4806,-7.482,-7.4865,-7.4833,-7.486,-7.4867,-7.4873,-7.4882,-7.4686,-7.4872,-7.4871,-7.4871,-7.4871,-7.487,0,-7.4578,-7.459,-7.4637,-7.4679,-7.4719,-7.4684,-7.4713,-7.4748,-7.4802,-7.4825,-7.4862,-7.4923,-7.4969,-7.4971,-7.5013,-7.5049,-7.5034,-7.5061,-7.5057,-7.5059,-7.4908,-7.4888,-7.5072,-7.5072,-7.5072,-7.5072,-7.5072,-7.5072,-7.4681,-7.4763,-7.4759,-7.4849,-7.486,-7.492,-7.494,-7.4965,-7.4982,-7.5052,-7.5091,-7.5092,-7.5106,-7.5149,-7.5189,-7.5188,-7.5205,-7.5238,-7.5231,-7.509,-7.507,-7.5051,-7.5031,-7.5243,-7.5243,-7.5378,-7.5379,-7.538]}]]